Location: Katowice
(50.2611°N, 19.0242°E)
Time: 00:38:23
(UTC+02:00)

Tiros 1 despin weight - Visible Passes

Search period start: 14 October 2019 00:00
Search period end: 24 October 2019 00:00
Orbit: 594 x 643 km, 48.2° (Epoch: 12 October)

Date Brightness Start Highest point End Pass type
(mag) Time Alt. Az. Time Alt. Az. Time Alt. Az.
14 Oct ? 04:10:57 29° SE 04:10:57 29° SE 04:14:26 10° E visible
14 Oct ? 05:48:01 17° WSW 05:51:30 62° S 05:56:07 10° E visible
15 Oct ? 04:26:56 42° SSE 04:26:56 42° SSE 04:31:09 10° E visible
15 Oct ? 06:04:00 14° WSW 06:08:02 69° S 06:12:41 10° E visible
16 Oct ? 03:05:50 10° E 03:05:50 10° E 03:05:53 10° E visible
16 Oct ? 04:42:54 55° S 04:43:10 56° SSE 04:47:46 10° E visible
16 Oct ? 06:19:58 10° W 06:24:36 68° S 06:29:14 10° ESE visible
17 Oct ? 03:21:46 15° E 03:21:46 15° E 03:22:43 10° E visible
17 Oct ? 04:58:50 54° SW 04:59:41 66° S 05:04:21 10° E visible
17 Oct ? 06:36:29 10° W 06:41:07 60° SSW 06:45:42 10° ESE visible
18 Oct ? 03:37:42 21° E 03:37:42 21° E 03:39:23 10° E visible
18 Oct ? 05:14:46 42° WSW 05:16:14 70° S 05:20:53 10° E visible
19 Oct ? 03:53:37 29° E 03:53:37 29° E 03:55:59 10° E visible
19 Oct ? 05:30:41 32° W 05:32:47 66° S 05:37:25 10° ESE visible
20 Oct ? 04:09:34 38° ESE 04:09:34 38° ESE 04:12:33 10° E visible
20 Oct ? 05:46:38 24° W 05:49:17 55° SSW 05:53:51 10° ESE visible
21 Oct ? 04:25:33 49° ESE 04:25:33 49° ESE 04:29:06 10° E visible
21 Oct ? 06:02:37 18° W 06:05:44 41° SSW 06:10:07 10° SE visible
22 Oct ? 04:41:33 56° SSE 04:41:33 56° SSE 04:45:35 10° ESE visible
22 Oct ? 06:18:38 13° W 06:22:05 29° SSW 06:26:06 10° SSE visible
23 Oct ? 03:20:33 11° E 03:20:33 11° E 03:20:44 10° E visible
23 Oct ? 04:57:38 49° S 04:57:38 49° S 05:01:58 10° SE visible
23 Oct ? 06:35:02 10° W 06:38:19 19° SW 06:41:36 10° S visible
